STARLINK-34616

Last updated on Sun Dec 07 2025 00:02:05 GMT+0000 (Coordinated Universal Time)

1 66320U 25253B 25340.66670139 -.00025273 00000+0 -59985-3 0 9995 2 66320 43.0007 20.4539 0001359 282.1748 228.2676 15.40694294 6009
UTC large
Height (km)
Speed (km/s)
/
Latitude / Longitude
Inclination (degrees)
Orbital Period (minutes)
Azimuth
Elevation
Range (km)
Doppler Factor

Next 0 passes for location: London (51.5072 / 0.1276)

Sorry there are no passes over London.